N760CC EGPF-KTEB

Flight info

Callsign N760CC
Flight time N/A
Altitude 34000
Route NORBO DCT TRN DCT BLACA DCT NIMAT DCT DUB DCT TOBOR/M080F350 DCT 53N020W 53N030W 5230N04000W 50N050W DCT ELSIR/N0455F380 N404E EBONY/N0461F400 DCT AJJAY DCT HYLND DCT BAF DCT MOBBS/N0362F160 T295 SAGES V489 COATE
Aircraft E190/M-SDE1E2E3FGHIJ3J4J7P2RWXY/LB1D1G1

Departure

Time 2026-05-06 17:39
Airport Glasgow Airport (EGPF)

Arrival

Time N/A
Airport Teterboro Airport (KTEB)
Time Latitude Longitude Altitude Speed Heading
2026-05-06 17:39 55.87044 -4.43594 18 ft 111 kts 47°
2026-05-06 17:39 55.87692 -4.42387 23 ft 157 kts 47°
2026-05-06 17:39 55.88438 -4.40953 465 ft 159 kts 49°
2026-05-06 17:39 55.89184 -4.39490 992 ft 162 kts 49°
2026-05-06 17:40 55.89932 -4.38001 1526 ft 163 kts 50°
2026-05-06 17:40 55.90697 -4.36498 2011 ft 170 kts 41°
2026-05-06 17:40 55.91876 -4.35726 2255 ft 199 kts 357°
2026-05-06 17:40 55.93173 -4.36723 2629 ft 217 kts 312°
2026-05-06 17:41 55.93783 -4.39153 3209 ft 223 kts 279°
2026-05-06 17:41 55.94115 -4.41904 3817 ft 236 kts 282°
2026-05-06 17:41 55.94556 -4.44859 4236 ft 260 kts 285°
2026-05-06 17:41 55.95040 -4.48016 4947 ft 269 kts 276°
2026-05-06 17:42 55.94767 -4.51215 5784 ft 260 kts 243°
2026-05-06 17:42 55.93657 -4.53776 5960 ft 262 kts 225°
2026-05-06 17:42 55.92370 -4.56079 5955 ft 263 kts 225°
2026-05-06 17:42 55.91085 -4.58388 6070 ft 262 kts 225°
2026-05-06 17:43 55.89811 -4.60683 6693 ft 262 kts 225°
2026-05-06 17:43 55.88529 -4.62991 7338 ft 266 kts 225°
2026-05-06 17:43 55.87342 -4.65487 7982 ft 270 kts 244°
2026-05-06 17:43 55.87025 -4.68736 8719 ft 275 kts 276°
2026-05-06 17:44 55.87407 -4.72067 9461 ft 278 kts 280°
2026-05-06 17:44 55.87823 -4.75429 10154 ft 281 kts 280°
2026-05-06 17:44 55.88241 -4.78830 10855 ft 286 kts 281°
2026-05-06 17:44 55.88667 -4.82300 11568 ft 291 kts 281°
2026-05-06 17:45 55.89098 -4.85824 12297 ft 296 kts 281°
2026-05-06 17:45 55.89534 -4.89402 13035 ft 300 kts 281°
2026-05-06 17:45 55.89976 -4.93032 13786 ft 304 kts 281°
2026-05-06 17:45 55.90423 -4.96716 14538 ft 308 kts 281°
2026-05-06 17:46 55.90873 -5.00437 15290 ft 311 kts 281°
2026-05-06 17:46 55.90831 -5.04216 16051 ft 311 kts 252°
2026-05-06 17:46 55.89768 -5.07508 16663 ft 307 kts 235°
2026-05-06 17:46 55.88231 -5.09874 16830 ft 286 kts 204°
2026-05-06 17:47 55.86354 -5.10289 17023 ft 268 kts 174°
2026-05-06 17:47 55.84514 -5.10105 16343 ft 272 kts 199°
2026-05-06 17:47 55.82904 -5.11689 15821 ft 262 kts 224°
2026-05-06 17:47 55.81527 -5.13605 15881 ft 244 kts 218°
2026-05-06 17:48 55.80132 -5.15161 15808 ft 231 kts 216°
2026-05-06 17:48 55.78778 -5.16521 15734 ft 217 kts 210°
2026-05-06 17:48 55.77428 -5.17504 15501 ft 215 kts 201°